| time (UTC) | temp F | wind direction | speed MPH | gust MPH | rain 1hr in | rain 24hr in | rain mn in | humidity % | barometer mb |
| 20260905103010 | 66 | 18 | 3.0 | 4.0 | 0.00 | 0.05 | 0.05 | 56 | 1005.7 |
| 20260905102000 | 67 | 306 | 8.0 | 8.0 | 0.00 | 0.05 | 0.05 | 59 | 1005.6 |
| 20260905100947 | 66 | 250 | 3.0 | 3.0 | 0.00 | 0.05 | 0.05 | 59 | 1005.7 |
| 20260905094910 | 66 | 293 | 4.0 | 4.0 | 0.00 | 0.05 | 0.05 | 59 | 1005.5 |
| 20260905093855 | 66 | 259 | 8.0 | 9.0 | 0.00 | 0.05 | 0.05 | 60 | 1005.4 |
| 20260905092846 | 66 | 250 | 10.0 | 11.0 | 0.00 | 0.05 | 0.05 | 60 | 1005.5 |
| 20260905090805 | 65 | 258 | 6.0 | 7.0 | 0.00 | 0.05 | 0.05 | 63 | 1005.6 |
| 20260905085755 | 64 | 234 | 5.0 | 5.0 | 0.00 | 0.05 | 0.05 | 67 | 1005.5 |
| 20260905084741 | 65 | 279 | 5.0 | 5.0 | 0.00 | 0.05 | 0.05 | 65 | 1005.5 |
| 20260905082705 | 64 | 243 | 2.0 | 2.0 | 0.00 | 0.05 | 0.05 | 70 | 1005.3 |
| 20260905081650 | 64 | 210 | 10.0 | 10.0 | 0.00 | 0.05 | 0.05 | 69 | 1005.3 |
| 20260905080641 | 63 | 274 | 5.0 | 6.0 | 0.00 | 0.05 | 0.05 | 71 | 1005.2 |
| 20260905074600 | 62 | 253 | 4.0 | 5.0 | 0.00 | 0.05 | 0.05 | 74 | 1005.1 |
| 20260905073550 | 62 | 288 | 5.0 | 6.0 | 0.00 | 0.05 | 0.05 | 75 | 1005.0 |
| 20260905072537 | 62 | 246 | 6.0 | 9.0 | 0.00 | 0.05 | 0.05 | 75 | 1004.8 |
| 20260905070500 | 61 | 263 | 7.0 | 10.0 | 0.00 | 0.05 | 0.05 | 78 | 1004.8 |
| 20260905065445 | 61 | 282 | 2.0 | 2.0 | 0.00 | 0.05 | 0.05 | 81 | 1004.8 |
| 20260905064437 | 61 | 311 | 10.0 | 11.0 | 0.00 | 0.05 | 0.05 | 80 | 1004.7 |
| 20260905062411 | 61 | 277 | 6.0 | 6.0 | 0.00 | 0.05 | 0.05 | 83 | 1004.6 |
| 20260905061355 | 60 | 267 | 3.0 | 4.0 | 0.00 | 0.05 | 0.05 | 85 | 1004.5 |
| 20260905060347 | 60 | 294 | 4.0 | 4.0 | 0.00 | 0.05 | 0.05 | 87 | 1004.5 |
| 20260905054305 | 59 | 250 | 5.0 | 5.0 | 0.00 | 0.05 | 0.05 | 88 | 1004.2 |
| 20260905053256 | 59 | 252 | 4.0 | 4.0 | 0.00 | 0.05 | 0.05 | 89 | 1004.2 |
| 20260905051230 | 58 | 237 | 4.0 | 4.0 | 0.00 | 0.05 | 0.05 | 89 | 1004.0 |
| 20260905050215 | 58 | 273 | 3.0 | 3.0 | 0.00 | 0.05 | 0.05 | 90 | 1003.8 |
| 20260905045207 | 58 | 283 | 2.0 | 2.0 | 0.00 | 0.05 | 0.05 | 90 | 1003.7 |
| 20260905043125 | 58 | 294 | 2.0 | 2.0 | 0.00 | 0.05 | 0.05 | 90 | 1003.4 |
| 20260905042115 | 59 | 316 | 3.0 | 3.0 | 0.00 | 0.05 | 0.05 | 90 | 1003.5 |
| 20260905041101 | 59 | 282 | 4.0 | 4.0 | 0.00 | 0.05 | 0.05 | 90 | 1003.4 |
| 20260905035025 | 59 | 284 | 6.0 | 7.0 | 0.00 | 0.05 | 0.05 | 89 | 1002.9 |
| 20260905034010 | 59 | 233 | 2.0 | 2.0 | 0.00 | 0.05 | 0.05 | 90 | 1003.0 |
| 20260905033001 | 59 | 252 | 4.0 | 4.0 | 0.00 | 0.05 | 0.05 | 90 | 1003.0 |
| 20260905030920 | 59 | 238 | 4.0 | 5.0 | 0.00 | 0.05 | 0.05 | 90 | 1002.5 |
| 20260905025910 | 59 | 264 | 4.0 | 5.0 | 0.00 | 0.05 | 0.05 | 90 | 1002.3 |
| 20260905024856 | 59 | 328 | 5.0 | 6.0 | 0.00 | 0.05 | 0.05 | 90 | 1002.1 |
| 20260905022820 | 60 | 240 | 5.0 | 5.0 | 0.00 | 0.05 | 0.05 | 91 | 1002.1 |
| 20260905021806 | 60 | 251 | 5.0 | 5.0 | 0.00 | 0.05 | 0.05 | 91 | 1001.9 |
| 20260905020757 | 60 | 285 | 3.0 | 3.0 | 0.00 | 0.05 | 0.05 | 92 | 1001.8 |
| 20260905014715 | 60 | 210 | 4.0 | 4.0 | 0.00 | 0.05 | 0.05 | 92 | 1001.3 |
| 20260905013705 | 60 | 295 | 3.0 | 3.0 | 0.00 | 0.05 | 0.05 | 92 | 1001.4 |
| 20260905012651 | 60 | 276 | 4.0 | 4.0 | 0.01 | 0.05 | 0.05 | 93 | 1001.5 |
| 20260905010615 | 60 | 226 | 2.0 | 2.0 | 0.01 | 0.05 | 0.05 | 94 | 1001.2 |
| 20260905005600 | 60 | 277 | 6.0 | 6.0 | 0.01 | 0.05 | 0.05 | 94 | 1001.3 |
| 20260905004552 | 60 | 250 | 2.0 | 2.0 | 0.01 | 0.05 | 0.05 | 93 | 1001.2 |
| 20260905002510 | 60 | 226 | 3.0 | 4.0 | 0.01 | 0.05 | 0.05 | 94 | 1001.3 |
| 20260905001500 | 60 | 228 | 3.0 | 3.0 | 0.00 | 0.04 | 0.04 | 93 | 1001.4 |
| 20260905000446 | 60 | 294 | 2.0 | 2.0 | 0.00 | 0.04 | 0.04 | 93 | 1001.3 |
| 20260904234410 | 60 | 318 | 3.0 | 3.0 | 0.01 | 0.04 | 0.04 | 93 | 1001.0 |
| 20260904233355 | 60 | 220 | 5.0 | 5.0 | 0.01 | 0.04 | 0.04 | 93 | 1000.9 |
| 20260904232346 | 60 | 227 | 4.0 | 4.0 | 0.03 | 0.04 | 0.04 | 93 | 1000.8 |
| 20260904230305 | 60 | 245 | 4.0 | 4.0 | 0.05 | 0.04 | 0.04 | 93 | 1000.7 |
| 20260904225255 | 60 | 263 | 5.0 | 6.0 | 0.07 | 0.04 | 0.04 | 93 | 1000.1 |
| 20260904224242 | 60 | 231 | 4.0 | 4.0 | 0.09 | 0.04 | 0.04 | 93 | 1000.0 |
| 20260904222205 | 60 | 238 | 6.0 | 6.0 | 0.14 | 0.03 | 0.03 | 94 | 1000.2 |
| 20260904221150 | 60 | 254 | 3.0 | 4.0 | 0.14 | 0.01 | 0.01 | 93 | 1000.1 |
| 20260904220141 | 60 | 264 | 4.0 | 4.0 | 0.13 | 0.00 | 0.00 | 93 | 1000.0 |
| 20260904214100 | 60 | 266 | 4.0 | 4.0 | 0.12 | 0.20 | 0.20 | 92 | 999.7 |
| 20260904213050 | 60 | 160 | 5.0 | 5.0 | 0.14 | 0.19 | 0.19 | 93 | 999.8 |
| 20260904212037 | 60 | 279 | 6.0 | 6.0 | 0.11 | 0.16 | 0.16 | 92 | 999.8 |
| 20260904210010 | 60 | 252 | 5.0 | 6.0 | 0.06 | 0.11 | 0.11 | 90 | 999.4 |
| 20260904205000 | 61 | 233 | 3.0 | 3.0 | 0.06 | 0.10 | 0.10 | 89 | 999.5 |
| 20260904203947 | 61 | 216 | 2.0 | 2.0 | 0.07 | 0.10 | 0.10 | 89 | 999.1 |
| 20260904201920 | 62 | 238 | 5.0 | 5.0 | 0.06 | 0.06 | 0.06 | 84 | 1000.2 |
| 20260904200910 | 62 | 345 | 2.0 | 2.0 | 0.05 | 0.05 | 0.05 | 84 | 999.8 |
| 20260904195857 | 62 | 250 | 4.0 | 5.0 | 0.05 | 0.05 | 0.05 | 84 | 999.7 |
| 20260904193820 | 63 | 251 | 6.0 | 7.0 | 0.04 | 0.04 | 0.04 | 84 | 999.9 |
| 20260904192820 | 64 | 268 | 6.0 | 6.0 | 0.03 | 0.03 | 0.03 | 80 | 999.7 |
| 20260904191807 | 69 | 262 | 5.0 | 6.0 | 0.00 | 0.00 | 0.00 | 68 | 999.6 |
| 20260904185743 | 69 | 306 | 2.0 | 2.0 | 0.00 | 0.00 | 0.00 | 67 | 998.3 |
| 20260904184730 | 70 | 286 | 5.0 | 5.0 | 0.00 | 0.00 | 0.00 | 68 | 998.4 |
| 20260904183717 | 71 | 303 | 4.0 | 4.0 | 0.00 | 0.00 | 0.00 | 66 | 998.3 |
| 20260904181703 | 73 | 228 | 5.0 | 5.0 | 0.00 | 0.00 | 0.00 | 63 | 997.6 |
| 20260904180653 | 75 | 0 | 7.0 | 8.0 | 0.00 | 0.00 | 0.00 | 64 | 997.2 |
| 20260904175652 | 78 | 198 | 4.0 | 4.0 | 0.00 | 0.00 | 0.00 | 55 | 995.8 |
| 20260904173615 | 77 | 228 | 5.0 | 5.0 | 0.00 | 0.00 | 0.00 | 57 | 995.2 |
| 20260904172600 | 77 | 210 | 5.0 | 5.0 | 0.00 | 0.00 | 0.00 | 57 | 995.3 |
| 20260904171551 | 77 | 230 | 3.0 | 3.0 | 0.00 | 0.00 | 0.00 | 57 | 995.5 |
| 20260904165510 | 77 | 252 | 3.0 | 3.0 | 0.00 | 0.00 | 0.00 | 57 | 996.1 |
| 20260904164500 | 78 | 234 | 4.0 | 4.0 | 0.00 | 0.00 | 0.00 | 57 | 996.0 |
| 20260904163446 | 78 | 217 | 6.0 | 6.0 | 0.00 | 0.00 | 0.00 | 56 | 996.2 |
| 20260904161435 | 78 | 258 | 2.0 | 2.0 | 0.00 | 0.00 | 0.00 | 57 | 996.6 |
| 20260904160425 | 78 | 224 | 6.0 | 7.0 | 0.00 | 0.00 | 0.00 | 57 | 996.6 |
| 20260904160216 | 78 | 210 | 12.0 | 13.0 | 0.00 | 0.00 | 0.00 | 58 | 996.6 |
| 20260904155215 | 77 | 246 | 8.0 | 9.0 | 0.00 | 0.00 | 0.00 | 59 | 996.7 |
| 20260904154206 | 77 | 48 | 6.0 | 6.0 | 0.00 | 0.00 | 0.00 | 59 | 996.7 |
| 20260904152132 | 77 | 263 | 5.0 | 5.0 | 0.00 | 0.00 | 0.00 | 60 | 997.0 |
| 20260904151116 | 77 | 230 | 6.0 | 7.0 | 0.00 | 0.00 | 0.00 | 60 | 997.1 |
| 20260904145050 | 78 | 222 | 5.0 | 5.0 | 0.00 | 0.00 | 0.00 | 58 | 997.4 |
| 20260904144035 | 77 | 240 | 4.0 | 4.0 | 0.00 | 0.00 | 0.00 | 59 | 997.6 |
| 20260904143026 | 77 | 186 | 4.0 | 4.0 | 0.00 | 0.00 | 0.00 | 58 | 997.6 |
| 20260904140945 | 77 | 252 | 5.0 | 5.0 | 0.00 | 0.00 | 0.00 | 57 | 998.0 |
| 20260904135936 | 77 | 234 | 7.0 | 8.0 | 0.00 | 0.00 | 0.00 | 58 | 998.1 |
| 20260904134936 | 77 | 228 | 6.0 | 6.0 | 0.00 | 0.00 | 0.00 | 60 | 998.4 |
| 20260904132858 | 76 | 215 | 7.0 | 8.0 | 0.00 | 0.00 | 0.00 | 60 | 998.8 |
| 20260904131843 | 76 | 240 | 4.0 | 5.0 | 0.00 | 0.00 | 0.00 | 60 | 998.9 |
| 20260904130837 | 76 | 270 | 5.0 | 5.0 | 0.00 | 0.00 | 0.00 | 61 | 999.1 |
| 20260904124807 | 75 | 276 | 10.0 | 11.0 | 0.00 | 0.00 | 0.00 | 61 | 999.4 |
| 20260904123805 | 75 | 254 | 6.0 | 6.0 | 0.00 | 0.00 | 0.00 | 63 | 999.7 |
| 20260904122756 | 75 | 262 | 10.0 | 10.0 | 0.00 | 0.00 | 0.00 | 63 | 999.8 |
| 20260904120730 | 73 | 224 | 4.0 | 5.0 | 0.00 | 0.00 | 0.00 | 65 | 1000.1 |
| 20260904115730 | 73 | 228 | 4.0 | 4.0 | 0.00 | 0.00 | 0.00 | 66 | 1000.3 |
| 20260904114729 | 73 | 228 | 10.0 | 10.0 | 0.00 | 0.00 | 0.00 | 64 | 1000.5 |
| 20260904112655 | 72 | 254 | 6.0 | 6.0 | 0.00 | 0.00 | 0.00 | 67 | 1000.8 |
| 20260904111653 | 73 | 192 | 7.0 | 10.0 | 0.00 | 0.00 | 0.00 | 67 | 1001.0 |
| 20260904110641 | 73 | 258 | 5.0 | 5.0 | 0.00 | 0.00 | 0.00 | 66 | 1001.1 |